[Iaude] MPEC G18: 2024 FF4 [a=2.05,e=0.59,i=2.7,H=24.0]

mpec at cfa.harvard.edu mpec at cfa.harvard.edu
Wed Apr 3 08:56:56 EDT 2024


M.P.E.C. 2024-G18                                 Issued 2024 April 3, 12:55 UT

     The Minor Planet Electronic Circulars contain information on unusual
         minor planets, routine data on comets and natural satellites,
         and occasional editorial announcements.  They are published
    on behalf of Division F of the International Astronomical Union by the
          Minor Planet Center, Smithsonian Astrophysical Observatory,
                          Cambridge, MA 02138, U.S.A.
			  
             Prepared using the Tamkin Foundation Computer Network

                              MPC at CFA.HARVARD.EDU
            URL https://www.minorplanetcenter.net/    ISSN 1523-6714

                                    2024 FF4                                    


Observations:
     K24F04F* C2024 03 17.42363211 54 12.308+06 04 38.69         22.29wXEG018F51
     K24F04F  C2024 03 17.43580811 54 11.200+06 04 44.44         22.09wXEG018F51
     K24F04F  C2024 03 17.44799711 54 10.062+06 04 50.16         22.16wXEG018F51
     K24F04F 1C2024 03 19.37879311 51 27.840+06 20 31.27         21.99GVEG018T12
     K24F04F 1C2024 03 19.38382311 51 27.315+06 20 33.88         21.83GVEG018T12
     K24F04F KC2024 03 31.29976511 22 12.256+08 39 18.40         20.69GVEG018V06
     K24F04F KC2024 03 31.30373711 22 11.244+08 39 22.14         20.90GVEG018V06
     K24F04F KC2024 03 31.30770611 22 10.218+08 39 26.06         21.03GVEG018V06
     K24F04F KC2024 03 31.31167511 22 09.221+08 39 30.20         20.69GVEG018V06
     K24F04F KC2024 04 02.85279111 10 55.34 +09 24 31.6          20.7 GVEG018L01
     K24F04F KC2024 04 02.85531911 10 54.52 +09 24 34.1          20.7 GVEG018L01
     K24F04F KC2024 04 02.85784411 10 53.68 +09 24 37.0          20.6 GVEG018L01
     K24F04F KC2024 04 03.15862411 09 21.86 +09 30 45.0          20.4 GXEG018858
     K24F04F KC2024 04 03.16563711 09 19.53 +09 30 53.4          19.9 GXEG018858
     K24F04F KC2024 04 03.17258811 09 17.17 +09 31 02.3          20.0 GXEG018858

Observer details:
858 Tebbutt Observatory, Edgewood.  Observer F. B. Zoltowski.  0.51-m f/8.1
    Schmidt-Cassegrain + CCD.
F51 Pan-STARRS 1, Haleakala.  Observers J. Herman, T. Lowe, P. Minguez, A.
    Schultz, I. Smith.  Measurers K. Chambers, T. de Boer, J. Fairlamb, H.
    Gao, M. Huber, C.-C. Lin, E. Magnier, Y. Ramanjooloo, R. Wainscoat, R.
    Weryk.  1.8-m Ritchey-Chretien + CCD.
L01 Visnjan Observatory, Tican.  Observers K. Korlevic, L. Poropat.  Measurer
    K. Korlevic.  1.0-m f/2.9 reflector + CCD.
T12 University of Hawaii 88-inch telescope, Maunakea.  Observer J. Fairlamb.
    Measurers R. Weryk, J. Fairlamb, Y. Ramanjooloo, R. Wainscoat.  2.24-m
    f/10.1 reflector + CCD.
V06 Catalina Sky Survey-Kuiper.  Observers T. Beuden, H. Groeller.  Measurers
    T. Beuden, V. F. Carvajal, D. Fay, J. B. Fazekas, D. C. Fuls, A. R. Gibbs,
    A. D. Grauer, H. Groeller, J. K. Hogan, R. A. Kowalski, S. M. Larson, G.
    J. Leonard, D. Rankin, R. L. Seaman, F. C. Shelly, K. W. Wierzchos.
    1.55-m reflector + 1K CCD.

Orbital elements:
2024 FF4                                                 Earth MOID = 0.0037 AU
Epoch 2024 Mar. 31.0 TT = JDT 2460400.5                 Bell                    
M 341.17368              (2000.0)            P               Q                  
n   0.33613989     Peri.  241.78332     -0.15367486     +0.98799960             
a   2.0485946      Node    19.39526     -0.88941682     -0.13146494             
e   0.5942522      Incl.    2.67843     -0.43049014     -0.08107869             
P   2.93           H   24.07          G   0.15           U   8                  
Residuals in seconds of arc
240317 F51  0.1-  0.1-    240331 V06  0.0   0.1-    240402 L01  0.1+  0.1-
240317 F51  0.1+  0.0     240331 V06  0.1+  0.2-    240402 L01  0.2-  0.2-
240317 F51  0.1-  0.0     240331 V06  0.2-  0.1-    240403 858  0.2-  0.1-
240319 T12  0.0   0.0     240331 V06  0.0   0.3+    240403 858  0.3+  0.3-
240319 T12  0.0   0.1+    240402 L01  0.1+  0.4+    240403 858  0.0   0.1+

Ephemeris:
2024 FF4                 a,e,i = 2.05, 0.59, 3                   q = 0.8312
Date    TT    R. A. (2000) Decl.     Delta      r    Elong.  Phase     V
2024 03 04    12 04 55.4 +04 48 55   0.3911  1.3713   163.6    11.8    23.4
...
2024 03 19    11 52 00.9 +06 17 28   0.2437  1.2383   174.2     4.6    21.9
...
2024 03 27    11 36 04.1 +07 38 50   0.1761  1.1683   164.3    13.4    21.4
...
2024 04 02    11 15 01.5 +09 09 02   0.1297  1.1170   153.4    23.6    21.0
2024 04 03    11 10 09.7 +09 28 06   0.1223  1.1086   151.2    25.7    20.9
2024 04 04    11 04 43.9 +09 48 46   0.1150  1.1003   148.9    28.0    20.8
...
2024 04 10    10 12 04.6 +12 40 17   0.07423 1.0512   130.1    46.8    20.3
...
2024 04 18    06 28 11.0 +15 55 32   0.04132 0.9899    68.9   108.9    21.2
...
2024 05 03    01 41 07.5 +01 16 24   0.1222  0.8947    20.6   156.6    29.2

M. P. C. Staff               (C) Copyright 2024 MPC           M.P.E.C. 2024-G18





More information about the Iaude mailing list